Regional Weather Roundup
Issued by NWS Grand Forks, ND

Home | Current Version | Previous Version | Graphics & Text | Print | Product List | Glossary On
Versions: 1 2 3 4 5 6 7 8 9 10 11 12 13 14 15 16 17 18 19 20 21 22 23 24 25 26 27 28 29 30 31 32 33 34 35 36 37 38 39 40 41 42 43 44 45 46 47 48 49 50
000
ASUS43 KFGF 260631
RWRFGF
NATIONAL WEATHER SERVICE EASTERN NORTH DAKOTA/GRAND FORKS ND
100 AM CDT TUE MAY 26 2015

 **SATELLITE DATA USED TO AUGMENT SKY COVER AT AUTOMATED STATIONS**
 *****  WEATHER ACROSS EASTERN NORTH DAKOTA  *****

CITY           SKY/WX    TMP DP  RH WIND       PRES   REMARKS
GRAND FORKS    CLEAR     57  52  83 S12       29.83R
6HR MIN TEMP:  53; 6HR MAX TEMP:  72;

GRAND FRKS AFB CLEAR     57  47  70 S9        29.83R
GRAND FRKS NWS   N/A     55 N/A N/A S15         N/A
DEVILS LAKE    MOCLDY    61  52  72 SW13      29.80F
6HR MIN TEMP:  57; 6HR MAX TEMP:  77;

FARGO          CLEAR     51  49  92 SW3       29.87R
WAHPETON ARPT  CLEAR     50  46  87 NW7       29.87S
$$

 ***** WEATHER ACROSS CENTRAL AND WESTERN NORTH DAKOTA  *****

CITY           SKY/WX    TMP DP  RH WIND       PRES   REMARKS
BISMARCK       CLEAR     57  52  83 W6        29.90R
6HR MIN TEMP:  56; 6HR MAX TEMP:  68;

MINOT          CLEAR     62  46  55 W15       29.83S
6HR MIN TEMP:  59; 6HR MAX TEMP:  75;

JAMESTOWN      CLOUDY    59  52  77 S10       29.86R
6HR MIN TEMP:  59; 6HR MAX TEMP:  67;

MINOT AFB      CLEAR     62  49  63 W15       29.82S
GARRISON         N/A     56  49  77 W7        29.87R
WILLISTON      CLEAR     52  47  83 SW6       29.89S
6HR MIN TEMP:  51; 6HR MAX TEMP:  71;

DICKINSON      CLEAR     50  46  86 SW10      29.92R
6HR MIN TEMP:  48; 6HR MAX TEMP:  65;

HETTINGER      PTCLDY    45  43  93 CALM      29.95S FOG
6HR MIN TEMP:  46; 6HR MAX TEMP:  62;

$$

 *****  OTHER AIRPORT OBSERVATIONS IN OUR AREA  *****

CITY           SKY/WX    TMP DP  RH WIND       PRES   REMARKS
WALHALLA         N/A     63  50  63 SW6       29.77R
GRAFTON AIRPOR FAIR      55  50  82 S8        29.81S
VALLEY CITY AR CLOUDY    55  55 100 S7        29.88S
CANDO          FAIR      59  45  58 SW7       29.81R
CAVALIER APRT  FAIR      61  55  82 S13       29.78R
GWINNER        NOT AVBL
SHEYENNE NWR     N/A     48  47  98 CALM      29.95
ROLLA          CLOUDY    55  41  58 SW10      29.82S
 ***** THE ABOVE OBSERVATIONS ARE NON NWS ARE NOT QUALITY
       CONTROLLED AND MAY MIS-REPORT RAIN FOR SNOW...
$$

  *****  WEATHER ACROSS NORTHERN MINNESOTA  *****

CITY           SKY/WX    TMP DP  RH WIND       PRES   REMARKS
FLAG ISLAND    CLEAR     55  52  88 S8        29.80R
WARROAD        CLEAR     55  52  88 SW8       29.83R
ROSEAU         CLEAR     57  52  82 S9        29.83R
HALLOCK        CLEAR     55  48  76 S10       29.80R
THF RVR FALLS  CLEAR     52  48  87 S7        29.87R
6HR MIN TEMP:  52; 6HR MAX TEMP:  68;

BAUDETTE       PTCLDY    52  49  89 S7        29.83R
6HR MIN TEMP:  52; 6HR MAX TEMP:  66;

WASKISH        MOCLDY    52  48  87 CALM      29.86R
CROOKSTON      CLEAR     54  48  82 SW7       29.87R
STEPHEN NDAWN    N/A     57  54  88 S15         N/A
GREENBUSH NDAW   N/A     57  52  82 S10         N/A
$$
  *****  WEATHER ACROSS CENTRAL AND WEST MINNESOTA  *****

CITY           SKY/WX    TMP DP  RH WIND       PRES   REMARKS
FOSSTON        PTCLDY    46  45  93 CALM      29.88R
BEMIDJI        MOCLDY    50  49  99 CALM      29.86R FOG
PARK RAPIDS    CLOUDY    53  51  93 N5        29.85R
6HR MIN TEMP:  53; 6HR MAX TEMP:  58; 6HR PCP:  0.01;

ELBOW LAKE     FAIR      52  50  91 CALM      29.86R
6HR MIN TEMP:  53; 6HR MAX TEMP:  59;

WADENA         MOCLDY    52  48  87 N5        29.84S
DETROIT LAKES  PTCLDY    52  50  93 NW3       29.88R
MOORHEAD       CLEAR     52  50  93 CALM      29.88R
FERGUS FALLS   PTCLDY    52  52 100 NW6       29.87R
MORRIS MN      PTCLDY    54  52  94 NW9       29.83S
STAPLES        PTCLDY    52  50  93 CALM      29.83R
$$
  *****  WEATHER ELSEWHERE ACROSS MINNESOTA  *****

CITY           SKY/WX    TMP DP  RH WIND       PRES   REMARKS
DULUTH         DRIZZLE   53  51  93 NE6       29.80F FOG
6HR MIN TEMP:  49; 6HR MAX TEMP:  53; 6HR PCP:  0.06;

INTRNTL FALLS  MOCLDY    51  49  92 CALM      29.84R
6HR MIN TEMP:  51; 6HR MAX TEMP:  58; 6HR PCP: TRACE;

ELY            DRIZZLE   54  50  87 SE3       29.81F
CLOQUET        LGT RAIN  52  50  93 NE3       29.80S
WHEATON        CLEAR     48  46  93 NW3       29.89S
BRAINERD       CLOUDY    54  53  97 N8        29.82R
6HR MIN TEMP:  54; 6HR MAX TEMP:  59; 6HR PCP:  0.01;

HIBBING        CLOUDY    54  50  86 CALM      29.82R
6HR MIN TEMP:  54; 6HR MAX TEMP:  56; 6HR PCP:  0.10;

ALEXANDRIA     PTCLDY    53  51  93 N5        29.84R
6HR MIN TEMP:  55; 6HR MAX TEMP:  58;

SAINT CLOUD    MOCLDY    57  55  93 N7        29.77F
6HR MIN TEMP:  54; 6HR MAX TEMP:  67;

MINNEAPOLIS    MOCLDY    63  57  81 W6        29.78S
6HR MIN TEMP:  63; 6HR MAX TEMP:  72;

$$

  *****  WEATHER ACROSS SOUTH DAKOTA  *****

CITY           SKY/WX    TMP DP  RH WIND       PRES   REMARKS
SIOUX FALLS    CLOUDY    58  54  86 NE7       29.82S
6HR MIN TEMP:  57; 6HR MAX TEMP:  69;

BROOKINGS      CLOUDY    54  50  87 CALM      29.84F
WATERTOWN      MOCLDY    51  48  89 N8        29.85F
6HR MIN TEMP:  50; 6HR MAX TEMP:  61;

HURON          MOCLDY    54  50  86 N9        29.86F
6HR MIN TEMP:  53; 6HR MAX TEMP:  65;

SISSETON         N/A     51  50  96 NW8       29.88R
ABERDEEN       PTCLDY    53  50  89 N3        29.90R
6HR MIN TEMP:  52; 6HR MAX TEMP:  67;

MITCHELL       MOCLDY    56  53  90 N6        29.85S
PIERRE         CLOUDY    56  53  90 N8        29.90R
6HR MIN TEMP:  56; 6HR MAX TEMP:  63;

MOBRIDGE       PTCLDY    53  53 100 N3        29.90R
RAPID CITY     CLOUDY    52  51  97 N6        29.96S
6HR MIN TEMP:  52; 6HR MAX TEMP:  57;

$$

  *****  SOME WEATHER IN NEARBY STATES *****

CITY           SKY/WX    TMP DP  RH WIND       PRES   REMARKS
GLASGOW MT     CLEAR     53  45  74 E8        29.89R
6HR MIN TEMP:  53; 6HR MAX TEMP:  74;

GREAT FALLS MT LGT RAIN  52  48  86 NW8       29.90F
6HR MIN TEMP:  51; 6HR MAX TEMP:  71; 6HR PCP:  0.25;

CHEYENNE WY    CLEAR     45  39  79 W5        30.03S
6HR MIN TEMP:  45; 6HR MAX TEMP:  56;

SCOTTSBLUFF NE CLOUDY    50  49  96 NW6       29.96S
6HR MIN TEMP:  49; 6HR MAX TEMP:  56; 6HR PCP:  0.01;

OMAHA NE       CLOUDY    63  59  87 SE8       29.78F
6HR MIN TEMP:  63; 6HR MAX TEMP:  79;

DES MOINES IA  CLOUDY    63  59  87 SE3       29.80F
6HR MIN TEMP:  63; 6HR MAX TEMP:  77; 6HR PCP:  0.10;

DAVENPORT IA   PTCLDY    69  63  81 S12       29.87F
6HR MIN TEMP:  68; 6HR MAX TEMP:  76;

CHICAGO IL     PTCLDY    71  62  73 S13       29.93F
6HR MIN TEMP:  65; 6HR MAX TEMP:  77;

EAU CLAIRE WI  FOG       58  57  97 CALM      29.79R VSB 1/2
6HR MIN TEMP:  57; 6HR MAX TEMP:  66; 6HR PCP: TRACE;

LA CROSSE WI   CLOUDY    67  60  78 S9        29.83R
6HR MIN TEMP:  66; 6HR MAX TEMP:  74;

$$

  *****  SOME NATIONAL WEATHER *****

CITY           SKY/WX    TMP DP  RH WIND       PRES   REMARKS
LA GUARDIA NY  PTCLDY    70  52  52 S13       30.18S
6HR MIN TEMP:  70; 6HR MAX TEMP:  78;

RALEIGH NC     PTCLDY    68  61  78 SW8       30.27F
6HR MIN TEMP:  68; 6HR MAX TEMP:  78;

ATLANTA GA     CLOUDY    70  66  88 SE8       30.22S
6HR MIN TEMP:  69; 6HR MAX TEMP:  72; 6HR PCP:  0.26;

NEW ORLEANS LA TSTM      74  70  87 S8        30.06F
6HR MIN TEMP:  72; 6HR MAX TEMP:  77; 6HR PCP:  0.39;

OKLAHOMA CITY  MOCLDY    55  54  96 CALM      29.85F
6HR MIN TEMP:  55; 6HR MAX TEMP:  64;

ALBUQUERQUE NM CLEAR     53  49  86 SE5       30.08S
6HR MIN TEMP:  53; 6HR MAX TEMP:  61;

SALT LAKE CITY PTCLDY    59  46  62 SE7       29.97S
6HR MIN TEMP:  59; 6HR MAX TEMP:  71;



USA.gov is the U.S. government's official web portal to all federal, state and local government web resources and services.